Change the Weather History Date:

Friday, September 20, 2013

  Actual Average Record
Temperature  
Mean Temperature 63 °F -  
Max Temperature 82 °F 76 °F 94 °F (1952)
Min Temperature 45 °F 50 °F 37 °F (1983)
Degree Days  
Heating Degree Days 2    
Growing Degree Days 13 (Base 50)    
Moisture  
Dew Point 44 °F    
Average Humidity 53    
Maximum Humidity 78    
Minimum Humidity 21    
Precipitation  
Precipitation 0.01 in - - ()
Sea Level Pressure  
Sea Level Pressure 29.68 in    
Wind  
Wind Speed 5 mph (WNW)    
Max Wind Speed 22 mph    
Max Gust Speed 30 mph    
Visibility 10 miles    
Events Rain    
Averages and records for this station are not official NWS values.
T = Trace of Precipitation, MM = Missing Value Source: NWS Daily Summary

Daily Weather History Graph

Daily Weather History Graph

Search for Another Location

Airport or City:

Trip Planner

Search our weather history database for the weather conditions in past years. The results will help you decide how hot, cold, wet, or windy it might be!

Date:

Astronomy

Sep. 20, 2013 Rise Set
Actual Time 6:49 AM PDT 7:05 PM PDT
Civil Twilight 6:19 AM PDT 7:35 PM PDT
Nautical Twilight 5:44 AM PDT 8:09 PM PDT
Astronomical Twilight 5:08 AM PDT 8:45 PM PDT
Moon 7:34 PM PDT (9/20) 8:16 AM PDT (9/20)
Length of Visible Light 13h 15m
Length of Day
12h 15m
Full, 98% of the Moon is Illuminated
Sep 20
Full
Sep 26
Last Quarter
Oct 4
New
Oct 11
First Quarter
Oct 18
Full

Hourly Weather History & Observations

Time (PDT) Temp. Dew Point Humidity Pressure Visibility Wind Dir Wind Speed Gust Speed Precip Events Conditions
12:53 AM 55.0 °F 41.0 °F 59% 29.80 in 10.0 mi ESE 6.9 mph - N/A   Clear
1:53 AM 52.0 °F 41.0 °F 66% 29.79 in 10.0 mi Calm Calm - N/A   Clear
2:53 AM 50.0 °F 41.0 °F 71% 29.78 in 10.0 mi Calm Calm - N/A   Clear
3:53 AM 51.1 °F 41.0 °F 68% 29.78 in 10.0 mi Calm Calm - N/A   Clear
4:53 AM 48.9 °F 39.9 °F 71% 29.77 in 10.0 mi Calm Calm - N/A   Clear
5:53 AM 50.0 °F 42.1 °F 74% 29.76 in 10.0 mi Calm Calm - N/A   Clear
6:53 AM 45.0 °F 37.9 °F 76% 29.76 in 10.0 mi Calm Calm - N/A   Clear
7:53 AM 51.1 °F 43.0 °F 74% 29.76 in 10.0 mi Calm Calm - N/A   Clear
8:53 AM 55.0 °F 44.1 °F 67% 29.74 in 10.0 mi Calm Calm - N/A   Clear
9:53 AM 61.0 °F 42.1 °F 50% 29.72 in 10.0 mi Calm Calm - N/A   Clear
10:53 AM 64.0 °F 41.0 °F 43% 29.69 in 10.0 mi SW 3.5 mph - N/A   Clear
11:53 AM 70.0 °F 41.0 °F 35% 29.65 in 10.0 mi Calm Calm - N/A   Clear
12:53 PM 75.9 °F 41.0 °F 29% 29.62 in 10.0 mi Calm Calm - N/A   Clear
1:15 PM 75.2 °F 41.0 °F 29% 29.62 in 1.8 mi Calm Calm - N/A   Haze
1:29 PM 78.8 °F 41.0 °F 26% 29.62 in 10.0 mi West 5.8 mph - N/A   Clear
1:53 PM 78.1 °F 41.0 °F 27% 29.60 in 10.0 mi WNW 6.9 mph - N/A   Clear
2:53 PM 81.0 °F 37.9 °F 21% 29.58 in 10.0 mi NW 4.6 mph - N/A   Clear
3:53 PM 78.1 °F 45.0 °F 31% 29.58 in 10.0 mi NNW 17.3 mph 21.9 mph N/A   Clear
4:53 PM 75.9 °F 48.0 °F 37% 29.57 in 10.0 mi WNW 21.9 mph 29.9 mph N/A   Clear
5:53 PM 73.0 °F 52.0 °F 48% 29.58 in 10.0 mi NW 19.6 mph 27.6 mph N/A   Clear
6:53 PM 70.0 °F 51.1 °F 51% 29.60 in 10.0 mi NW 17.3 mph - N/A   Clear
7:53 PM 69.1 °F 48.9 °F 49% 29.61 in 10.0 mi NW 19.6 mph 26.5 mph N/A   Clear
8:53 PM 68.0 °F 50.0 °F 52% 29.64 in 10.0 mi NW 16.1 mph - N/A   Scattered Clouds
9:53 PM 66.0 °F 52.0 °F 60% 29.66 in 10.0 mi NW 15.0 mph 26.5 mph 0.00 in Rain Light Rain
10:53 PM 61.0 °F 54.0 °F 78% 29.66 in 10.0 mi Variable 4.6 mph - 0.01 in   Partly Cloudy
11:53 PM 61.0 °F 54.0 °F 78% 29.68 in 10.0 mi SW 5.8 mph - N/A   Overcast